Regional Weather Roundup
Issued by NWS Cleveland, OH

Home | Current Version | Previous Version | Graphics & Text | Print | Product List | Glossary On
Versions: 1 2 3 4 5 6 7 8 9 10 11 12 13 14 15 16 17 18 19 20 21 22 23 24 25 26 27 28 29 30 31 32 33 34 35 36 37 38 39 40 41 42 43 44 45 46 47 48 49 50
000
ASUS41 KCLE 231502
RWRCLE
OHIO REGIONAL WEATHER ROUNDUP
NATIONAL WEATHER SERVICE CLEVELAND, OH
1100 AM EDT WED AUG 23 2017

NOTE: "FAIR" INDICATES FEW OR NO CLOUDS BELOW 12,000 FEET WITH NO
SIGNIFICANT WEATHER AND/OR OBSTRUCTIONS TO VISIBILITY.

OHZ001>008-015>018-024>027-034-035-043-044-231600-
   NORTHWEST OHIO

CITY           SKY/WX    TMP DP  RH WIND       PRES   REMARKS
DEFIANCE       SUNNY     71  54  54 NW10      30.00S
FINDLAY        SUNNY     70  55  59 W7        30.00R
TOLEDO EXPRESS SUNNY     70  55  59 NW14      29.98S
TOLEDO EXEC    SUNNY     72  55  55 NW15      29.99R
LIMA           SUNNY     70  57  63 NW8       30.02R
$$

OHZ009>014-019>023-028>033-038-089-231600-
   NORTHEAST OHIO

CITY           SKY/WX    TMP DP  RH WIND       PRES   REMARKS
CLE-HOPKINS    NOT AVBL
CLE-LAKEFRONT  PTSUNNY   73  53  49 W13       29.95S
CUY CO. ARPT   MOSUNNY   73  55  53 NW8       29.97R
LORAIN-ELYRIA  SUNNY     70  54  56 VRB7      29.98S
ASHTABULA      MOSUNNY   69  54  58 NW13G22   29.95S
AKRON-CANTON   MOSUNNY   71  55  56 W8        29.98S
WOOSTER        SUNNY     70  55  59 NW8       30.00S
MANSFIELD      SUNNY     70  57  63 W8        30.01S
YOUNGSTOWN     PTSUNNY   71  54  54 W8G17     29.97S
$$

OHZ042-051>053-060>062-070>072-077>081-231600-
  SOUTHWEST OHIO

CITY           SKY/WX    TMP DP  RH WIND       PRES   REMARKS
CINC-COVINGTON MOSUNNY   74  55  51 N9        30.04R
CINC-LUNKEN    SUNNY     74  55  51 NE7       30.04S
HAMILTON       SUNNY     74  55  51 NW6       30.05R
DAYTON         MOSUNNY   71  55  56 N10       30.05R
WRIGHT-PAT AFB SUNNY     71  56  59 NW8       30.03S
DAYTON GENERAL SUNNY     73  54  51 N8        30.04R
WILMINGTON     SUNNY     71  56  58 N9        30.03S
$$

OHZ036-037-039>041-045>050-054>059-063>069-073>076-082>088-231600-
  CENTRAL AND SOUTHEAST OHIO

CITY           SKY/WX    TMP DP  RH WIND       PRES   REMARKS
COLUMBUS       MOSUNNY   74  55  51 N10       30.01S
OSU AIRPORT    SUNNY     72  56  57 N10       30.02R
BOLTON FIELD   SUNNY     70  55  60 N7        30.03R
RICKENBACK AFB SUNNY     70  55  59 NW3       30.01S
NEWARK         SUNNY     73  51  46 CALM      30.01R
MARION         SUNNY     71  56  58 NW8       30.01S
LANCASTER      SUNNY     71  59  65 NW5       30.02S
ZANESVILLE     SUNNY     72  56  57 NW7       30.00S
NEW PHILLY     NOT AVBL
$$




USA.gov is the U.S. government's official web portal to all federal, state and local government web resources and services.